Temp
7 7 6 6 6 7 7 7 7 7 7 7 7 7 7 8 8 8 8 8 8 8 8 8 7 7 8 7 7 7 7 7 5 7 7 8 8 8 8 8 8 8 8
6 6 6 6 7 7 7 7 8 8 7 7 7 8 8 8 8 8 8 8 8 7 7 7 7 7 7 7 7 7 7 7 6 5 6 7 7 8 7 8 8 8 8
6 6 6 7 7 7 7 8 8 8 8 8 8 9 9 8 9 9 9 9 8 7 7 7 7 7 7 7 7 7 7 7 7 6 6 6 7 7 7 7 7 7 8
6 7 7 7 7 7 8 8 8 8 8 8 8 9 9 9 9 9 9 9 8 8 8 7 7 7 7 7 7 7 7 7 7 6 6 7 7 7 6 6 6 7 7
7 7 7 7 8 8 8 9 9 8 8 8 8 8 9 9 9 9 9 9 9 9 8 8 8 8 8 8 8 8 7 7 7 6 6 6 6 6 6 6 5 6 6
7 7 7 8 8 8 9 9 9 9 9 9 8 8 8 9 9 10 9 9 9 8 9 9 9 9 9 9 8 8 8 7 7 6 5 5 6 6 6 5 5 4 4
7 7 7 8 8 9 10 10 10 10 9 9 8 8 8 8 9 9 9 9 9 9 9 9 9 9 8 8 9 9 9 8 7 7 6 6 5 6 5 5 5 4 4
7 7 8 8 9 10 10 10 10 10 10 9 8 8 8 8 8 9 9 9 10 10 9 9 9 9 9 9 9 9 9 9 8 7 7 6 6 5 5 5 5 4 5
7 8 9 9 10 10 10 10 10 10 9 9 8 8 8 7 8 8 9 10 10 10 10 10 10 10 10 10 10 9 9 9 8 7 7 6 6 5 5 5 5 4 4
8 8 9 9 9 9 9 9 9 9 9 9 8 8 8 8 8 8 9 10 10 9 10 10 10 9 9 9 9 9 9 8 8 7 7 6 5 4 4 4 3 3 4
8 9 9 9 9 9 9 9 9 9 9 9 8 8 8 8 8 9 9 9 9 9 9 9 9 9 9 9 9 8 8 7 7 6 6 5 4 3 3 3 3 3 3
9 9 9 10 10 9 9 10 10 9 9 9 9 9 9 9 9 9 10 9 9 9 8 8 8 8 8 7 8 7 6 6 6 5 4 3 2 2 2 2 3 3 3
9 10 10 10 10 10 10 10 10 10 9 9 9 9 10 10 10 9 10 9 9 9 8 8 8 7 7 6 6 6 5 5 4 3 2 3 2 2 2 2 2 3 4
10 11 11 11 10 10 10 10 10 10 9 9 9 9 10 10 10 9 9 9 9 9 8 7 7 6 6 5 5 5 4 4 3 3 3 3 2 2 2 2 2 2 2
11 11 11 12 11 11 10 10 9 10 10 9 9 9 9 9 9 9 9 9 8 8 8 7 6 5 5 4 4 4 3 3 3 2 1 1 2 1 1 1 2 2 2
11 11 11 12 12 12 12 12 11 11 10 10 10 9 10 9 10 10 9 9 8 8 7 6 5 5 4 4 3 3 3 3 2 1 1 1 1 1 1 1 1 2 2
11 11 11 12 12 11 11 11 12 12 11 11 11 10 10 10 10 10 9 9 8 8 7 6 5 4 4 3 3 2 2 2 1 0 0 1 1 1 1 1 1 1 2
11 11 11 12 12 12 11 11 12 12 11 11 11 11 10 10 10 10 9 9 8 7 7 6 5 4 4 3 3 2 2 2 1 0 0 1 1 0 1 1 1 1 2
11 11 11 12 12 12 12 11 12 12 12 11 11 11 11 10 10 10 9 9 8 7 7 6 5 4 4 3 3 2 2 1 0 -0 0 0 0 0 0 1 1 2 2
11 12 12 12 13 13 13 12 11 12 12 12 11 11 11 10 10 10 9 9 8 8 7 6 5 5 4 3 2 2 1 1 -1 -0 -0 -0 0 0 0 1 1 1 2
11 12 12 12 12 13 13 13 12 12 12 11 12 11 10 10 10 10 9 9 8 8 7 6 5 4 4 3 2 2 2 0 -0 -1 -1 -0 0 1 1 1 1 1 1
11 12 12 12 13 14 13 13 12 12 12 11 12 12 11 11 10 10 9 9 8 7 6 5 5 4 3 3 2 2 2 1 0 0 0 0 1 1 1 1 1 1 2
12 12 12 13 13 13 12 12 13 12 12 12 11 11 11 10 10 9 9 8 8 7 5 5 5 4 4 3 3 2 1 1 1 1 1 1 1 1 1 2 2 2 2
12 12 12 12 12 12 11 11 11 11 11 10 10 10 10 10 9 9 9 8 7 6 5 5 4 4 3 3 3 2 2 2 2 2 2 2 2 2 2 2 2 2 3
13 12 12 12 10 10 10 10 10 10 9 8 8 8 8 8 8 7 7 7 7 6 4 5 4 4 3 3 3 2 2 2 3 2 2 2 2 2 2 3 3 3 3
13 12 11 10 9 9 9 8 8 8 7 6 6 6 6 6 6 6 6 6 6 5 4 4 4 3 3 3 2 3 3 3 3 3 3 3 3 3 3 3 4 4 4
Height
843 841 839 837 834 832 830 827 824 821 818 815 812 809 807 804 802 799 796 794 791 789 786 784 782 779 777 774 772 771 769 768 767 764 761 760 758 756 754 751 748 744 740
844 842 839 837 835 833 832 830 827 824 821 818 815 811 808 805 803 801 799 796 794 792 790 787 785 783 780 777 775 773 772 769 768 765 762 760 758 755 752 748 745 741 737
845 843 840 838 837 836 834 832 829 826 823 819 816 813 811 809 807 805 802 800 797 794 791 789 787 784 781 778 776 774 772 769 767 765 762 759 756 753 749 745 742 737 732
846 844 842 841 840 838 836 833 831 828 826 823 820 817 815 812 810 808 806 803 800 797 793 791 788 785 782 779 776 773 771 768 766 763 760 757 754 751 747 743 738 734 730
848 847 845 844 843 840 838 835 833 832 830 827 824 821 818 814 810 808 806 804 802 799 796 793 790 787 784 781 777 773 770 767 764 762 760 757 752 749 745 742 738 734 730
850 849 848 846 844 841 839 837 835 833 831 829 827 824 820 816 812 809 807 805 803 800 796 793 791 788 784 781 778 774 772 768 765 763 760 756 752 748 745 741 738 735 731
851 851 849 847 845 842 839 836 834 833 832 831 829 825 822 818 814 811 809 807 804 800 797 793 788 786 782 779 776 774 771 768 766 763 760 757 753 749 745 741 738 736 733
852 851 850 848 845 843 840 836 833 832 832 831 830 827 823 820 817 814 811 807 804 800 797 793 788 784 781 777 773 771 769 767 764 762 759 756 753 749 745 741 737 733 729
853 852 850 848 845 843 840 837 833 832 831 831 830 828 824 821 818 814 811 807 803 799 796 792 788 784 781 776 772 768 766 764 762 760 758 755 751 748 744 739 735 732 727
853 852 850 849 846 843 842 840 837 834 833 832 830 828 825 823 820 815 811 807 803 800 796 793 789 785 781 776 772 768 765 763 761 759 756 753 750 746 742 738 734 730 726
854 853 851 850 848 846 843 842 839 837 835 833 831 829 827 825 821 817 813 809 805 802 798 794 790 786 782 777 772 769 766 763 761 757 754 751 747 742 739 735 732 728 725
854 853 852 851 850 849 847 844 841 839 836 834 832 830 828 826 822 818 815 811 807 803 800 796 792 788 783 778 773 770 767 763 759 755 752 748 744 739 735 732 729 726 723
853 852 851 850 850 849 848 846 844 841 838 836 834 832 829 826 823 819 816 812 809 805 802 798 793 788 783 779 775 771 767 762 758 754 750 746 742 737 733 730 726 723 720
852 852 850 849 849 848 847 845 844 842 840 838 835 832 829 826 823 819 816 813 810 806 803 799 795 790 785 780 775 770 766 762 757 752 748 743 740 735 731 728 724 721 719
852 851 850 848 847 845 845 844 842 841 840 837 835 832 829 825 822 819 816 813 810 807 803 799 794 789 783 778 773 769 765 760 755 750 745 741 737 733 729 726 723 720 718
851 851 850 848 846 845 843 840 838 836 836 835 833 831 828 825 822 819 817 814 811 808 804 800 796 791 786 780 775 769 764 759 753 748 743 739 735 731 728 725 722 720 717
850 850 848 847 845 843 841 838 836 834 833 832 831 829 827 824 821 819 817 814 811 808 805 802 797 793 787 781 775 769 763 758 752 747 742 738 733 730 727 724 721 719 717
850 849 848 845 844 842 839 836 835 832 830 829 829 827 826 823 821 819 816 814 811 809 806 803 798 793 788 782 775 769 762 756 751 745 740 736 733 729 726 724 721 719 716
849 848 846 844 842 840 838 836 834 831 829 827 827 825 824 822 819 818 816 814 811 808 806 803 799 794 788 781 775 768 762 755 749 744 739 735 732 729 726 723 720 719 717
848 847 845 843 840 837 836 834 833 830 827 825 823 822 821 820 818 816 815 813 810 807 805 802 798 794 788 781 774 767 760 753 747 742 738 734 731 728 725 723 721 719 717
846 845 843 840 837 834 833 832 830 827 824 823 821 820 820 819 817 815 813 812 809 806 805 802 798 794 788 781 773 766 760 753 747 742 738 734 731 728 726 725 722 720 720
845 843 841 838 834 833 832 830 828 825 823 820 819 817 816 816 815 812 812 810 809 807 806 803 800 795 789 782 774 767 760 753 748 743 739 735 732 730 728 726 724 722 720
843 841 839 836 833 832 831 828 825 823 821 819 817 817 817 817 815 814 813 810 808 806 806 804 800 795 789 782 776 769 761 755 750 746 742 738 735 733 731 728 726 724 722
841 839 836 834 833 832 830 827 825 823 821 820 819 818 816 814 812 811 810 808 807 806 806 804 800 796 790 783 777 771 764 758 753 748 744 741 737 734 732 730 728 725 723
838 836 835 834 834 833 831 829 828 826 824 823 821 820 819 817 815 813 811 809 807 807 806 804 801 797 792 786 780 774 767 761 756 752 747 743 740 737 734 731 729 727 725
836 835 834 836 836 835 834 832 831 829 827 825 824 822 820 818 816 814 813 811 809 808 807 805 803 799 793 788 782 776 770 764 758 754 749 745 741 738 736 733 731 730 729
Wind_Speed
15 14 15 15 14 14 15 17 18 17 17 17 16 15 15 16 15 17 18 19 21 20 20 21 20 17 16 15 13 11 10 8 2 5 9 11 12 12 13 13 15 16 16
14 14 15 14 14 15 16 15 18 20 20 20 19 20 20 18 17 19 19 19 20 19 17 18 17 18 15 13 12 11 10 8 5 4 8 12 14 13 15 15 18 19 20
13 15 15 16 15 16 16 13 15 19 20 21 21 21 20 18 16 16 17 19 20 18 16 13 16 18 17 14 11 10 10 10 8 6 7 12 17 16 20 17 21 23 21
12 12 14 14 14 16 15 14 16 18 19 19 20 19 18 15 10 10 12 16 18 18 16 14 14 16 17 16 12 11 11 14 13 12 9 11 14 16 15 16 23 24 25
11 11 11 11 14 15 16 15 13 14 16 14 18 20 18 18 15 4 7 13 14 16 16 16 15 15 16 16 15 13 13 17 16 12 9 9 14 17 17 15 19 21 23
8 8 9 11 14 16 14 12 10 11 12 13 17 19 19 18 17 6 6 9 12 15 18 18 17 16 15 14 13 9 9 11 13 10 6 10 13 17 15 17 17 7 4
6 7 10 13 17 17 15 11 7 6 7 8 13 17 15 17 17 13 10 10 12 14 16 18 22 18 14 13 12 11 9 8 8 9 11 10 14 18 15 18 17 13 11
4 8 12 15 15 14 16 17 9 4 2 3 10 15 12 15 15 13 12 12 15 16 18 16 16 18 17 14 13 13 12 10 8 8 11 11 13 13 15 15 16 18 16
5 10 13 13 13 12 12 15 12 5 2 2 7 13 15 14 15 16 16 17 17 18 17 19 18 17 20 18 14 13 10 10 10 7 10 10 14 13 14 14 16 15 7
7 10 10 10 13 9 7 9 10 8 7 3 7 10 11 14 16 18 17 16 16 17 18 18 17 18 21 18 17 11 9 11 9 10 12 12 15 18 15 15 14 13 10
6 9 8 9 10 11 8 6 5 6 5 7 9 9 10 14 19 20 19 20 17 18 20 21 19 20 21 20 16 12 9 8 12 12 11 14 22 20 15 14 12 11 11
6 9 9 6 6 9 9 9 10 9 9 11 11 10 12 15 20 20 18 20 17 16 18 19 19 20 22 19 18 11 12 16 16 14 13 22 25 21 19 14 13 11 9
8 10 10 8 6 6 7 8 8 8 8 10 11 11 12 15 18 15 13 15 15 13 16 18 20 21 21 21 16 17 20 22 20 16 18 22 20 22 18 16 12 10 11
9 9 8 9 10 9 9 10 9 7 7 7 8 10 13 14 15 15 11 13 13 12 16 21 22 20 21 22 20 17 22 21 21 20 22 18 21 18 18 16 14 14 13
5 6 8 9 10 12 13 15 15 12 10 12 10 11 13 16 13 12 10 11 12 11 16 20 23 26 27 29 28 24 23 25 26 25 22 19 17 17 15 17 13 13 9
4 5 7 9 11 12 12 14 12 14 12 14 14 14 14 13 10 8 8 7 9 11 15 17 20 23 26 28 27 27 26 28 27 25 19 18 17 16 15 16 14 12 11
7 10 11 10 12 14 14 12 13 10 10 10 9 11 11 9 6 7 7 6 9 10 13 16 18 21 26 29 27 27 26 27 25 20 20 18 19 15 14 14 13 12 11
10 13 14 14 16 18 15 10 9 11 13 10 7 7 7 7 6 7 7 6 9 9 10 13 17 21 24 29 29 29 27 27 22 23 20 18 17 15 13 13 12 12 11
10 12 15 16 17 17 13 11 9 7 9 11 10 8 8 7 8 7 8 6 8 9 9 12 16 21 25 29 30 29 28 27 24 21 20 18 16 15 14 12 13 11 10
11 13 15 17 18 15 13 13 11 10 11 10 12 14 10 8 8 12 9 7 8 9 9 11 16 21 26 29 31 31 31 30 23 24 20 18 17 15 12 12 11 9 7
12 16 17 19 21 13 13 14 15 14 15 13 13 14 11 11 13 12 9 7 9 10 9 11 16 22 27 30 32 31 31 29 25 24 20 18 17 15 11 9 8 8 7
15 16 17 19 15 10 11 15 13 14 14 12 13 9 9 9 13 12 9 7 11 10 7 11 17 23 27 30 30 29 31 27 27 23 21 19 16 11 10 8 7 8 7
11 14 19 15 11 9 10 8 9 11 7 9 7 3 2 10 9 9 9 11 10 7 5 11 18 24 28 31 29 27 29 25 25 21 19 17 13 11 9 10 10 7 5
12 14 11 9 6 5 6 9 9 6 6 9 7 6 6 8 0 6 12 10 6 4 4 11 18 23 28 30 30 27 27 22 22 18 16 15 12 10 10 8 8 8 10
9 6 6 7 12 11 12 13 12 11 11 13 11 10 9 8 9 9 6 6 6 9 4 12 20 24 28 28 28 27 24 22 20 17 15 13 11 11 10 10 9 10 9
3 10 14 13 12 12 12 13 12 10 10 12 12 12 11 11 11 10 8 6 8 5 9 16 19 23 27 27 26 27 25 23 18 16 17 15 18 12 10 11 15 16 11
Wind_Direction
10 14 18 9 9 24 36 42 36 39 41 41 40 46 49 50 51 45 47 47 51 48 46 47 46 40 38 37 39 38 31 13 340 321 316 334 337 344 351 354 352 347 333
20 12 15 23 33 46 37 48 54 52 51 46 43 46 46 43 48 54 47 38 31 25 25 29 28 23 22 23 28 26 16 12 357 303 323 335 342 342 345 341 351 348 342
15 20 37 37 38 30 31 55 44 42 39 38 39 40 41 44 50 50 39 30 24 23 22 22 17 10 8 3 359 353 349 343 334 314 315 327 331 337 340 343 347 348 351
20 27 25 32 30 28 32 33 28 26 26 36 38 38 35 29 33 39 34 26 25 33 36 34 27 21 17 11 0 355 346 336 328 318 316 320 317 331 337 344 343 345 347
16 16 35 32 26 22 19 17 19 16 20 33 33 33 33 29 17 24 23 25 17 27 30 28 24 21 22 23 18 11 6 3 3 356 327 308 325 331 339 334 328 331 342
7 29 30 17 12 7 6 7 10 19 28 33 28 24 28 32 23 32 33 13 1 358 358 359 358 357 359 7 13 3 5 2 360 343 327 322 320 324 325 328 328 321 324
9 27 14 7 5 7 13 6 1 2 1 3 15 11 23 34 37 50 39 13 357 355 354 349 346 353 343 331 332 334 340 334 337 341 330 332 322 332 325 325 322 312 299
11 7 4 360 2 9 13 14 12 13 351 10 18 17 27 31 33 32 22 16 10 2 355 359 2 4 7 344 324 312 311 322 323 324 322 321 332 331 326 318 311 305 300
16 5 359 358 357 353 4 11 13 35 97 81 21 19 31 33 29 22 13 9 4 2 11 19 17 15 11 3 350 335 327 332 324 316 331 329 335 325 336 322 319 320 297
9 0 358 359 2 355 352 20 34 68 78 56 356 9 33 36 28 21 17 10 16 26 28 23 21 21 19 7 358 348 342 342 354 338 324 331 338 329 321 329 319 302 286
355 344 329 343 7 25 36 36 39 43 30 29 27 41 43 30 26 28 32 33 33 31 28 25 25 21 14 8 3 355 353 10 347 337 334 338 342 343 331 329 323 320 314
343 340 340 334 8 19 33 42 47 47 52 46 47 56 39 29 26 30 32 31 29 33 30 28 26 20 20 21 19 16 6 350 343 333 336 342 343 336 335 333 333 330 315
319 321 315 310 319 322 347 3 9 22 34 37 38 32 19 19 22 23 28 27 25 31 28 22 14 11 11 13 13 15 8 357 342 335 340 341 333 330 329 337 333 324 313
309 319 327 300 297 297 299 304 304 317 340 354 355 357 356 1 8 14 17 23 20 20 20 15 13 12 11 11 7 356 357 357 354 338 327 325 337 332 336 340 336 344 336
300 321 340 331 323 314 297 288 285 285 289 300 312 319 325 336 353 5 8 16 14 18 15 13 12 10 7 3 0 359 353 354 353 346 336 320 320 335 331 340 340 340 319
317 331 337 341 344 333 325 326 284 281 272 279 291 302 315 320 342 354 359 2 1 4 15 13 7 5 4 358 355 351 350 352 349 342 331 328 323 329 334 337 342 336 324
342 334 336 328 326 326 324 304 313 303 293 273 289 290 289 311 321 330 338 336 353 356 13 9 3 0 358 357 354 352 345 349 347 332 332 330 332 333 335 330 333 332 333
345 332 334 326 325 329 324 311 304 305 296 288 264 285 293 297 301 325 320 322 342 349 360 357 355 355 355 355 353 350 348 350 339 334 328 332 335 338 333 332 333 330 331
331 331 336 333 316 313 320 302 304 304 310 295 265 278 276 291 287 307 318 322 326 327 342 348 351 353 353 352 352 352 350 347 338 331 332 337 336 340 335 337 344 351 352
318 325 322 323 330 316 305 307 300 301 311 306 273 263 278 298 291 302 308 302 312 311 324 342 350 353 353 353 353 354 353 350 339 340 340 343 346 346 346 355 2 4 1
318 325 326 324 322 315 296 294 301 305 310 291 304 281 273 283 289 293 300 290 303 310 320 342 355 356 356 357 356 356 355 349 349 354 1 2 356 353 12 13 7 29 26
318 316 322 322 315 315 309 309 301 318 320 308 307 287 268 273 290 280 295 301 312 309 326 352 359 0 360 0 359 359 354 0 3 5 7 6 8 18 19 26 31 11 19
316 317 323 327 335 313 328 338 338 328 338 335 324 302 312 317 307 312 345 328 316 322 340 360 1 2 4 5 6 5 359 6 5 7 15 19 24 26 28 17 21 41 20
330 332 340 357 18 3 34 41 32 23 20 47 21 342 314 304 38 334 335 329 352 1 351 12 8 8 6 7 7 7 8 10 11 11 14 16 14 22 26 38 15 355 347
334 345 54 83 102 83 71 58 50 51 43 45 52 39 26 19 22 31 45 26 10 341 28 24 15 9 10 10 9 9 8 13 21 25 27 17 9 6 3 11 17 14 50
94 120 115 108 95 78 66 55 48 43 38 46 48 41 30 22 21 17 11 351 355 70 48 25 5 10 11 11 12 12 9 12 10 11 16 17 13 44 37 27 60 78 73